Weather History for KHSP - December, 2014

Change the Weather History Date:

Monday, December 29, 2014

  Actual Average Record
Temperature  
Mean Temperature 34 °F -  
Max Temperature 38 °F 33 °F 53 °F (1996)
Min Temperature 29 °F 20 °F 10 °F (2000)
Degree Days  
Heating Degree Days 32    
Moisture  
Dew Point 35 °F    
Average Humidity 100    
Maximum Humidity 100    
Minimum Humidity 100    
Precipitation  
Precipitation 0.13 in - - ()
Sea Level Pressure  
Sea Level Pressure 30.04 in    
Wind  
Wind Speed 5 mph (NE)    
Max Wind Speed 12 mph    
Max Gust Speed -    
Visibility 2 miles    
Events Fog , Rain , Snow    
Averages and records for this station are not official NWS values.
T = Trace of Precipitation, MM = Missing Value Source: NWS Daily Summary

Daily Weather History Graph

Daily Weather History Graph

Search for Another Location

Airport or City:

Trip Planner

Search our weather history database for the weather conditions in past years. The results will help you decide how hot, cold, wet, or windy it might be!

Date:

Astronomy

Dec. 29, 2014 Rise Set
Actual Time 7:34 AM EST 5:08 PM EST
Civil Twilight 7:05 AM EST 5:37 PM EST
Nautical Twilight 6:32 AM EST 6:10 PM EST
Astronomical Twilight 6:00 AM EST 6:42 PM EST
Moon 12:39 PM EST (12/29) 12:54 AM EST (12/29)
Length of Visible Light 10h 32m
Length of Day
9h 33m
First Quarter, 60% of the Moon is Illuminated
Dec 29
First Quarter
Jan 4
Full
Jan 13
Last Quarter
Jan 20
New
Jan 26
First Quarter

Hourly Weather History & Observations

Time (EST) Temp. Windchill Dew Point Humidity Pressure Visibility Wind Dir Wind Speed Gust Speed Precip Events Conditions
12:15 AM 38.3 °F 30.9 °F 38.3 °F 100% 30.01 in 10.0 mi West 11.5 mph - N/A   Overcast
12:35 AM 37.9 °F 30.9 °F 37.9 °F 100% 30.01 in 10.0 mi West 10.4 mph - N/A   Overcast
12:55 AM 37.9 °F 30.9 °F 37.9 °F 100% 30.01 in 10.0 mi WNW 10.4 mph - N/A   Overcast
1:15 AM 37.8 °F 31.3 °F 37.8 °F 100% 30.01 in 10.0 mi West 9.2 mph - N/A   Overcast
1:35 AM 37.6 °F 31.0 °F 37.6 °F 100% 30.01 in 10.0 mi West 9.2 mph - N/A   Overcast
1:55 AM 37.4 °F 31.4 °F 37.4 °F 100% 30.03 in 10.0 mi West 8.1 mph - N/A   Overcast
2:15 AM 37.6 °F 33.1 °F 37.6 °F 100% 30.03 in 10.0 mi West 5.8 mph - N/A   Overcast
2:35 AM 37.8 °F 33.3 °F 37.8 °F 100% 30.03 in 10.0 mi West 5.8 mph - N/A   Overcast
2:55 AM 37.4 °F 34.9 °F 37.4 °F 100% 30.02 in 10.0 mi West 3.5 mph - N/A   Overcast
3:15 AM 37.4 °F - 37.4 °F 100% 30.03 in 10.0 mi Calm Calm - N/A   Overcast
3:35 AM 37.4 °F - 37.4 °F 100% 30.02 in 10.0 mi Calm Calm - N/A   Overcast
3:55 AM 37.4 °F 34.9 °F 37.4 °F 100% 30.03 in 10.0 mi West 3.5 mph - N/A   Overcast
4:15 AM 36.9 °F 33.1 °F 36.9 °F 100% 30.03 in 10.0 mi WNW 4.6 mph - N/A   Overcast
4:35 AM 36.5 °F 31.8 °F 36.5 °F 100% 30.04 in 1.0 mi WNW 5.8 mph - N/A   Overcast
4:55 AM 36.5 °F 33.9 °F 36.5 °F 100% 30.02 in 0.2 mi WNW 3.5 mph - N/A Fog Fog
5:15 AM 36.5 °F 31.8 °F 36.5 °F 100% 30.03 in 0.2 mi West 5.8 mph - N/A Fog Fog
5:35 AM 36.5 °F - 36.5 °F 100% 30.01 in 0.2 mi Calm Calm - N/A   Light Drizzle
5:55 AM 36.5 °F - 36.5 °F 100% 30.03 in 0.2 mi Calm Calm - N/A   Light Drizzle
6:15 AM 37.0 °F - 37.0 °F 100% 30.01 in 7.0 mi Calm Calm - N/A   Overcast
6:35 AM 37.2 °F - 37.2 °F 100% 30.01 in 0.8 mi Calm Calm - N/A   Overcast
6:55 AM 36.7 °F 34.1 °F 36.7 °F 100% 30.01 in 0.2 mi NNW 3.5 mph - N/A Fog Fog
7:15 AM 36.7 °F - 36.7 °F 100% 30.03 in 0.2 mi Calm Calm - N/A Fog Fog
7:35 AM 36.5 °F - 36.5 °F 100% 30.04 in 0.2 mi Calm Calm - N/A Rain Light Rain
7:55 AM 37.4 °F 34.9 °F 37.4 °F 100% 30.03 in 1.0 mi ESE 3.5 mph - N/A   Overcast
8:15 AM 37.6 °F - 37.6 °F 100% 30.04 in 0.2 mi Calm Calm - N/A Fog Fog
8:35 AM 37.8 °F - 37.8 °F 100% 30.04 in 0.2 mi Calm Calm - N/A Fog Fog
8:55 AM 37.8 °F - 37.8 °F 100% 30.05 in 0.2 mi Calm Calm - N/A Fog Fog
9:15 AM 37.6 °F - 37.6 °F 100% 30.05 in 0.2 mi Calm Calm - N/A Fog Fog
9:35 AM 37.4 °F - 37.4 °F 100% 30.06 in 0.2 mi Calm Calm - N/A Fog Fog
9:55 AM 37.4 °F 34.9 °F 37.4 °F 100% 30.06 in 0.2 mi East 3.5 mph - N/A Fog Fog
10:15 AM 37.0 °F 34.5 °F 37.0 °F 100% 30.06 in 0.2 mi East 3.5 mph - N/A Snow Light Snow
10:35 AM 36.0 °F 33.3 °F 36.0 °F 100% 30.07 in 0.2 mi East 3.5 mph - N/A Snow Light Snow
10:55 AM 35.8 °F 33.0 °F 35.8 °F 100% 30.07 in 0.2 mi East 3.5 mph - 0.02 in Rain Rain
11:15 AM 34.9 °F 29.0 °F 34.9 °F 100% 30.06 in 0.2 mi ENE 6.9 mph - 0.01 in   Drizzle
11:35 AM 34.7 °F 30.6 °F 34.7 °F 100% 30.05 in 0.2 mi ENE 4.6 mph - 0.02 in Rain Light Rain
11:55 AM 34.2 °F 28.2 °F 34.2 °F 100% 30.05 in 0.2 mi East 6.9 mph - 0.03 in Rain Light Rain
12:15 PM 34.0 °F 28.8 °F 34.0 °F 100% 30.04 in 0.2 mi ENE 5.8 mph - N/A Snow Light Snow
12:35 PM 33.4 °F 27.3 °F 33.4 °F 100% 30.02 in 0.2 mi ENE 6.9 mph - 0.01 in Snow Light Snow
12:55 PM 33.4 °F 28.1 °F 33.4 °F 100% 30.02 in 0.2 mi ENE 5.8 mph - 0.01 in Snow Light Snow
1:15 PM 33.3 °F 28.9 °F 33.3 °F 100% 30.01 in 0.2 mi East 4.6 mph - N/A Snow Light Snow
1:35 PM 33.1 °F 30.0 °F 33.1 °F 100% 30.01 in 0.2 mi East 3.5 mph - N/A Snow Light Snow
1:55 PM 32.9 °F 29.8 °F 32.9 °F 100% 30.01 in 0.2 mi East 3.5 mph - 0.01 in Snow Light Snow
2:15 PM 33.3 °F 30.2 °F 33.3 °F 100% 30.01 in 0.2 mi ENE 3.5 mph - 0.01 in Snow Light Snow
2:35 PM 33.3 °F - 33.3 °F 100% 30.01 in 0.2 mi Calm Calm - 0.01 in Snow Light Snow
2:55 PM 35.6 °F 32.8 °F 35.6 °F 100% 30.01 in 0.2 mi West 3.5 mph - 0.02 in Rain Light Rain
3:15 PM 35.1 °F - 35.1 °F 100% 30.01 in 0.2 mi Calm Calm - N/A Rain Light Rain
3:35 PM 33.3 °F - 33.3 °F 100% 30.02 in 0.2 mi Calm Calm - 0.01 in Snow Light Snow
3:55 PM 33.8 °F - 33.8 °F 100% 30.02 in 0.2 mi Calm Calm - 0.01 in Rain Light Rain
4:15 PM 35.6 °F - 35.6 °F 100% 30.02 in 0.2 mi Calm Calm - N/A Rain Rain
4:35 PM 35.6 °F 32.8 °F 35.6 °F 100% 30.03 in 0.2 mi West 3.5 mph - N/A Rain Light Rain
4:55 PM 35.2 °F - 35.2 °F 100% 30.03 in 0.2 mi Calm Calm - N/A Rain Light Rain
5:15 PM 34.7 °F 31.8 °F 34.7 °F 100% 30.04 in 0.2 mi WNW 3.5 mph - 0.01 in Rain Light Rain
5:35 PM 34.3 °F - 34.3 °F 100% 30.04 in 0.2 mi Calm Calm - 0.01 in Rain Rain
5:55 PM 33.8 °F 29.6 °F 33.8 °F 100% 30.05 in 0.2 mi NW 4.6 mph - 0.02 in Rain Rain
6:15 PM 33.6 °F - 33.6 °F 100% 30.05 in 0.5 mi Calm Calm - N/A Rain Light Rain
6:35 PM 32.9 °F - 32.9 °F 100% 30.06 in 0.5 mi Calm Calm - N/A   Overcast
6:55 PM 33.1 °F - 33.1 °F 100% 30.06 in 0.8 mi Calm Calm - 0.01 in Snow Light Snow
7:15 PM 32.0 °F 28.7 °F 32.0 °F 100% 30.06 in 0.2 mi ENE 3.5 mph - N/A Snow Light Snow
7:35 PM 32.2 °F - 32.2 °F 100% 30.07 in 0.5 mi Calm Calm - N/A   Overcast
7:55 PM 31.8 °F 28.5 °F 31.8 °F 100% 30.07 in 0.2 mi NE 3.5 mph - N/A Snow Light Snow
8:15 PM 31.3 °F 27.9 °F 31.3 °F 100% 30.07 in 0.2 mi ENE 3.5 mph - N/A Snow Light Snow
8:35 PM 31.1 °F 26.4 °F 31.1 °F 100% 30.07 in 0.2 mi ENE 4.6 mph - N/A Snow Light Snow
8:55 PM 31.1 °F - 31.1 °F 100% 30.08 in 0.2 mi Calm Calm - N/A Snow Light Snow
9:15 PM 30.9 °F 27.5 °F 30.9 °F 100% 30.09 in 0.2 mi ENE 3.5 mph - N/A Snow Light Snow
9:35 PM 30.7 °F 26.0 °F 30.7 °F 100% 30.08 in 0.2 mi ENE 4.6 mph - N/A Fog Light Freezing Fog
9:55 PM 30.2 °F 24.3 °F 30.2 °F 100% 30.09 in 0.2 mi ENE 5.8 mph - N/A Fog Light Freezing Fog
10:15 PM 30.2 °F 25.4 °F 30.2 °F 100% 30.09 in 0.2 mi East 4.6 mph - N/A Fog Light Freezing Fog
10:35 PM 30.2 °F 25.4 °F 30.2 °F 100% 30.09 in 0.2 mi East 4.6 mph - N/A Snow Light Snow
10:55 PM 30.0 °F 25.2 °F 30.0 °F 100% 30.09 in 0.2 mi East 4.6 mph - N/A Snow Light Snow
11:15 PM 29.7 °F 24.7 °F 29.7 °F 100% 30.09 in 0.2 mi ENE 4.6 mph - N/A Snow Light Snow
11:35 PM 29.3 °F 24.3 °F 29.3 °F 100% 30.10 in 0.2 mi ENE 4.6 mph - N/A Snow Light Snow
11:55 PM 29.3 °F 24.3 °F 29.3 °F 100% 30.09 in 0.2 mi East 4.6 mph - N/A Fog Light Freezing Fog